GAF11A ETNW-EKKA

Flight info

Callsign GAF11A
Flight time N/A
Altitude 30000
Route NIE N850 ELSOB
Aircraft A400/H-SDE2E3FGHIJ4J5M1RWXY/LB1D1

Departure

Time 2026-05-05 00:06
Airport Wunstorf Air Base (ETNW)

Arrival

Time N/A
Airport Midtjyllands Airport / Air Base Karup (EKKA)
Time Latitude Longitude Altitude Speed Heading
2026-05-04 23:24 52.46044 9.42636 204 ft 0 kts 339°
2026-05-05 00:02 52.46048 9.42633 198 ft 3 kts 339°
2026-05-05 00:02 52.46059 9.42592 201 ft 6 kts 270°
2026-05-05 00:03 52.46032 9.42552 206 ft 5 kts 180°
2026-05-05 00:03 52.45994 9.42576 198 ft 8 kts 159°
2026-05-05 00:03 52.45940 9.42600 199 ft 9 kts 155°
2026-05-05 00:03 52.45928 9.42642 193 ft 3 kts 94°
2026-05-05 00:04 52.45933 9.42692 198 ft 7 kts 78°
2026-05-05 00:04 52.45944 9.42789 196 ft 11 kts 78°
2026-05-05 00:04 52.45960 9.42922 205 ft 12 kts 82°
2026-05-05 00:04 52.45956 9.43043 204 ft 9 kts 116°
2026-05-05 00:05 52.45918 9.43070 191 ft 6 kts 172°
2026-05-05 00:05 52.45866 9.43082 194 ft 9 kts 172°
2026-05-05 00:05 52.45805 9.43099 201 ft 9 kts 168°
2026-05-05 00:05 52.45771 9.43089 203 ft 5 kts 226°
2026-05-05 00:06 52.45763 9.43051 196 ft 0 kts 260°
2026-05-05 00:06 52.45739 9.42809 204 ft 74 kts 262°
2026-05-05 00:06 52.45612 9.41323 373 ft 167 kts 260°
2026-05-05 00:06 52.45441 9.39481 1629 ft 162 kts 259°
2026-05-05 00:07 52.45144 9.37614 2660 ft 183 kts 250°
2026-05-05 00:07 52.44665 9.35511 3487 ft 209 kts 248°
2026-05-05 00:07 52.44123 9.33151 4391 ft 236 kts 248°
2026-05-05 00:07 52.43537 9.30445 5219 ft 262 kts 251°
2026-05-05 00:08 52.43310 9.27479 6548 ft 267 kts 274°
2026-05-05 00:08 52.44032 9.24676 7860 ft 275 kts 307°
2026-05-05 00:08 52.45620 9.22908 9186 ft 284 kts 341°
2026-05-05 00:08 52.47598 9.22790 10455 ft 292 kts 13°
2026-05-05 00:09 52.49451 9.24220 11636 ft 299 kts 32°
2026-05-05 00:09 52.51217 9.26111 12812 ft 307 kts 33°
2026-05-05 00:09 52.53036 9.28036 13983 ft 315 kts 32°
2026-05-05 00:09 52.54924 9.29937 15064 ft 322 kts 31°
2026-05-05 00:10 52.56875 9.31827 16135 ft 328 kts 30°
2026-05-05 00:10 52.58872 9.33719 17224 ft 335 kts 29°
2026-05-05 00:10 52.60919 9.35622 18295 ft 341 kts 27°
2026-05-05 00:10 52.63123 9.37121 19200 ft 346 kts 15°
2026-05-05 00:11 52.65485 9.38046 20074 ft 354 kts